Location: Unspecified
(0.0000°N, 0.0000°E)
Time: 07:08:33
(UTC+00:00)

Vanguard 2 Rocket - Visible Passes

Search period start: 26 June 2017 00:00
Search period end: 06 July 2017 00:00
Orbit: 554 x 3328 km, 32.9° (Epoch: 25 June)

Date Brightness Start Highest point End Pass type
(mag) Time Alt. Az. Time Alt. Az. Time Alt. Az.
26 Jun 8.4 05:35:24 10° NNW 05:39:57 39° NE 05:47:03 10° ESE visible
26 Jun 9.3 19:19:41 10° WSW 19:36:38 57° NW 19:46:37 10° NE visible
26 Jun 10.1 21:47:00 10° WNW 21:51:24 13° NW 21:55:03 10° NNW visible
27 Jun 8.9 04:37:55 10° N 04:40:59 18° NE 04:44:51 10° E visible
27 Jun 9.3 18:16:29 10° WSW 18:35:49 79° NW 18:47:41 10° NE visible
27 Jun 10.0 20:40:29 10° W 20:51:16 24° NW 20:58:35 10° NNE visible
28 Jun 9.9 19:35:35 10° WSW 19:50:56 39° NW 20:00:37 10° NNE visible
29 Jun 7.8 04:51:23 10° NNW 04:55:22 38° NE 05:01:04 10° ESE visible
29 Jun 9.7 18:31:37 10° WSW 18:50:12 57° NW 19:01:58 10° NE visible
29 Jun 10.3 20:58:56 10° WNW 21:06:03 16° NW 21:11:33 10° N visible
30 Jun 8.7 03:53:45 10° N 03:56:26 17° NE 03:59:31 10° E visible
30 Jun 10.2 19:52:31 10° W 20:05:26 27° NW 20:14:17 10° NNE visible
01 Jul 6.3 05:05:43 10° NW 05:09:54 90° NE 05:16:09 10° SE visible
01 Jul 10.2 18:47:33 10° WSW 19:04:35 41° NW 19:15:57 10° NNE visible
02 Jul 7.2 04:09:32 29° N 04:10:57 40° NE 04:15:38 10° ESE visible
02 Jul 10.4 20:10:50 10° WNW 20:20:23 18° NW 20:27:36 10° N visible
03 Jul 9.1 03:14:33 11° ENE 03:14:33 11° ENE 03:14:48 10° E visible
03 Jul 6.9 05:20:47 10° W 05:24:46 38° SSW 05:30:26 10° SE visible
03 Jul 10.4 19:04:31 10° W 19:19:14 29° NW 19:29:43 10° NNE visible
04 Jul 5.8 04:25:24 75° WSW 04:25:34 77° SW 04:30:36 10° SE visible
04 Jul 10.6 20:30:56 10° NW 20:35:55 12° NNW 20:40:12 10° N visible
05 Jul 8.9 03:30:18 12° ESE 03:30:18 12° ESE 03:30:44 10° ESE visible
05 Jul 8.0 05:36:51 10° WSW 05:39:57 18° SSW 05:43:52 10° SSE visible
05 Jul 10.5 19:22:43 10° WNW 19:34:24 20° NNW 19:43:17 10° NNE visible
